Volver al catálogo

ATLAS 5 CENTAUR DEB

LostHEO
NORAD 44897·DEBRIS·🇺🇸 United States

Lanzado Oct 17, 2018 desde Cape Canaveral Space Force Station

Loading…

Próximos Pases (próximas 24 horas)

TLE

ObsoletoSource: Space-Track

Época: Aug 7, 2024, 03:48 UTC

1 44897U 18079BL  24220.15859257 -.00000109  00000-0  00000-0 0  9990
2 44897  11.9282 274.3768 5716787 222.5180  75.0972  2.35662667  1436

Sigue ATLAS 5 CENTAUR DEB en tiempo real con AllMySat

Download on the App Store